W4SNA-3 Weather Reports


Display with metric or nautical units.
time (UTC)temp
F
wind
direction
speed
MPH
gust
MPH
rain 1hr
in
rain 24hr
in
rain mn
in
humidity
%
barometer
mb
20211128085403 41 161 14.0 35.0 0.00 0.00 0.00 48 1008.9
20211128084905 41 158 17.0 32.0 0.00 0.00 0.00 48 1008.9
20211128084403 41 152 15.0 26.0 0.00 0.00 0.00 48 1009.0
20211128083904 41 152 11.0 28.0 0.00 0.00 0.00 47 1009.1
20211128083404 41 151 13.0 28.0 0.00 0.00 0.00 47 1009.2
20211128082904 41 152 11.0 30.0 0.00 0.00 0.00 47 1009.2
20211128082403 41 150 13.0 30.0 0.00 0.00 0.00 47 1009.1
20211128081903 41 153 13.0 28.0 0.00 0.00 0.00 47 1009.3
20211128081403 41 151 12.0 28.0 0.00 0.00 0.00 46 1009.4
20211128080904 41 152 8.0 20.0 0.00 0.00 0.00 46 1009.4
20211128080403 41 144 7.0 19.0 0.00 0.00 0.00 46 1009.4
20211128075904 41 144 10.0 19.0 0.00 0.00 0.00 46 1009.6
20211128075211 41 156 10.0 22.0 0.00 0.00 0.00 46 1009.8
20211128074711 41 143 7.0 25.0 0.00 0.00 0.00 45 1009.7
20211128074211 41 151 10.0 25.0 0.00 0.00 0.00 45 1009.6
20211128073711 41 150 7.0 25.0 0.00 0.00 0.00 46 1009.7
20211128073132 41 151 8.0 23.0 0.00 0.00 0.00 45 1008.9
20211128072630 42 135 7.0 23.0 0.00 0.00 0.00 45 1008.9
20211128072132 42 149 11.0 22.0 0.00 0.00 0.00 45 1009.0
20211128071630 42 150 9.0 24.0 0.00 0.00 0.00 45 1008.9
20211128071130 42 149 11.0 24.0 0.00 0.00 0.00 45 1009.0
20211128070630 42 149 9.0 24.0 0.00 0.00 0.00 45 1009.0
20211128070131 42 152 9.0 24.0 0.00 0.00 0.00 45 1009.1
20211128065630 42 151 9.0 19.0 0.00 0.00 0.00 45 1009.1
20211128065131 42 149 9.0 19.0 0.00 0.00 0.00 45 1009.1
20211128064619 42 148 7.0 22.0 0.00 0.00 0.00 45 1009.2
20211128064118 42 144 7.0 22.0 0.00 0.00 0.00 44 1009.2
20211128063425 42 155 4.0 18.0 0.00 0.00 0.00 45 1009.2
20211128062924 42 145 6.0 23.0 0.00 0.00 0.00 44 1009.2
20211128062424 41 146 10.0 23.0 0.00 0.00 0.00 45 1009.2
20211128061924 41 147 8.0 16.0 0.00 0.00 0.00 44 1009.2
20211128061428 41 148 8.0 18.0 0.00 0.00 0.00 45 1009.3
20211128060924 41 145 6.0 18.0 0.00 0.00 0.00 45 1009.3
20211128060424 41 144 8.0 20.0 0.00 0.00 0.00 45 1009.4
20211128055923 41 143 10.0 20.0 0.00 0.00 0.00 45 1009.3
20211128055424 41 148 5.0 20.0 0.00 0.00 0.00 45 1009.3
20211128054923 41 150 7.0 25.0 0.00 0.00 0.00 45 1009.4
20211128054423 41 141 6.0 25.0 0.00 0.00 0.00 45 1009.4
20211128053925 41 140 5.0 22.0 0.00 0.00 0.00 45 1009.4
20211128053425 41 142 10.0 24.0 0.00 0.00 0.00 46 1009.4
20211128052925 41 146 11.0 24.0 0.00 0.00 0.00 46 1009.4
20211128052424 41 144 9.0 22.0 0.00 0.00 0.00 46 1009.5
20211128051925 41 138 8.0 22.0 0.00 0.00 0.00 46 1009.8
20211128051424 41 141 7.0 26.0 0.00 0.00 0.00 45 1009.8
20211128050926 41 146 8.0 26.0 0.00 0.00 0.00 46 1009.7
20211128050307 41 142 11.0 22.0 0.00 0.00 0.00 45 1009.9
20211128045808 41 146 9.0 22.0 0.00 0.00 0.00 46 1010.0
20211128045046 41 137 9.0 18.0 0.00 0.00 0.00 45 1009.9
20211128044045 41 144 7.0 21.0 0.00 0.00 0.00 45 1010.2
20211128043546 41 147 7.0 17.0 0.00 0.00 0.00 45 1010.3
20211128042645 41 140 8.0 26.0 0.00 0.00 0.00 45 1010.4
20211128042145 41 138 11.0 25.0 0.00 0.00 0.00 45 1010.4
20211128041645 41 137 9.0 25.0 0.00 0.00 0.00 46 1010.5
20211128041147 41 141 10.0 26.0 0.00 0.00 0.00 46 1010.6
20211128040648 41 137 13.0 26.0 0.00 0.00 0.00 46 1010.6
20211128040145 41 137 11.0 26.0 0.00 0.00 0.00 47 1010.5
20211128035051 41 140 9.0 23.0 0.00 0.00 0.00 49 1010.7
20211128034552 40 142 11.0 22.0 0.00 0.00 0.00 48 1010.6
20211128034050 40 141 8.0 21.0 0.00 0.00 0.00 49 1010.7
20211128033552 40 136 12.0 21.0 0.00 0.00 0.00 51 1010.6
20211128033050 40 140 9.0 20.0 0.00 0.00 0.00 52 1010.8
20211128032553 39 135 8.0 20.0 0.00 0.00 0.00 53 1010.8
20211128032054 39 133 8.0 19.0 0.00 0.00 0.00 54 1010.8
20211128031552 39 131 6.0 12.0 0.00 0.00 0.00 54 1011.0
20211128031051 40 129 6.0 13.0 0.00 0.00 0.00 54 1011.0
20211128030552 39 124 6.0 20.0 0.00 0.00 0.00 53 1011.0
20211128030050 39 128 8.0 20.0 0.00 0.00 0.00 54 1011.1
20211128025058 38 136 7.0 14.0 0.00 0.00 0.00 55 1011.3
20211128024330 38 134 5.0 9.0 0.00 0.00 0.00 55 1011.3
20211128023552 38 134 5.0 12.0 0.00 0.00 0.00 55 1011.3
20211128023051 38 136 4.0 11.0 0.00 0.00 0.00 55 1011.4
20211128022553 38 133 4.0 10.0 0.00 0.00 0.00 55 1011.5
20211128022053 38 133 5.0 10.0 0.00 0.00 0.00 55 1011.5
20211128021555 38 131 5.0 10.0 0.00 0.00 0.00 55 1011.6
20211128021051 38 125 6.0 11.0 0.00 0.00 0.00 55 1011.6
20211128020552 38 125 5.0 11.0 0.00 0.00 0.00 55 1011.7
20211128020051 38 124 6.0 11.0 0.00 0.00 0.00 55 1011.8
20211128015554 38 125 6.0 11.0 0.00 0.00 0.00 55 1011.8
20211128015051 38 123 7.0 12.0 0.00 0.00 0.00 55 1010.9
20211128014552 38 122 6.0 12.0 0.00 0.00 0.00 55 1011.0
20211128014051 38 119 8.0 13.0 0.00 0.00 0.00 55 1011.0
20211128013552 38 122 8.0 14.0 0.00 0.00 0.00 55 1011.0
20211128013051 38 122 8.0 14.0 0.00 0.00 0.00 55 1011.1
20211128012552 38 122 7.0 17.0 0.00 0.00 0.00 55 1011.1
20211128012051 38 118 9.0 17.0 0.00 0.00 0.00 56 1011.3
20211128011552 38 117 8.0 14.0 0.00 0.00 0.00 56 1011.3
20211128011051 38 116 9.0 14.0 0.00 0.00 0.00 56 1011.3
20211128010552 38 116 8.0 14.0 0.00 0.00 0.00 56 1011.3
20211128010051 38 118 8.0 13.0 0.00 0.00 0.00 56 1011.5
20211128005552 38 116 9.0 12.0 0.00 0.00 0.00 56 1011.6
20211128005052 38 118 8.0 12.0 0.00 0.00 0.00 57 1011.6
20211128004552 37 116 9.0 12.0 0.00 0.00 0.00 57 1011.7
20211128004051 37 117 7.0 12.0 0.00 0.00 0.00 57 1011.6
20211128003552 37 114 7.0 12.0 0.00 0.00 0.00 56 1011.6
20211128003051 38 110 7.0 12.0 0.00 0.00 0.00 56 1011.6
20211128002552 38 108 6.0 9.0 0.00 0.00 0.00 55 1011.7
20211128002051 38 104 6.0 9.0 0.00 0.00 0.00 55 1011.6
20211128001552 38 103 6.0 9.0 0.00 0.00 0.00 55 1011.6
20211128001051 38 104 4.0 10.0 0.00 0.00 0.00 54 1011.6
20211128000553 38 105 5.0 10.0 0.00 0.00 0.00 55 1011.6
20211128000051 38 102 5.0 11.0 0.00 0.00 0.00 54 1011.6
20211127235553 38 102 6.0 11.0 0.00 0.00 0.00 54 1011.7
20211127235051 38 103 7.0 10.0 0.00 0.00 0.00 54 1011.6
20211127234557 38 103 6.0 11.0 0.00 0.00 0.00 54 1011.7
20211127234051 38 103 6.0 11.0 0.00 0.00 0.00 54 1011.8
20211127233552 38 104 6.0 13.0 0.00 0.00 0.00 53 1011.8
20211127233051 38 109 6.0 13.0 0.00 0.00 0.00 54 1011.8
20211127232552 38 106 6.0 11.0 0.00 0.00 0.00 53 1011.8
20211127232051 38 108 7.0 13.0 0.00 0.00 0.00 53 1011.8
20211127231552 38 103 7.0 13.0 0.00 0.00 0.00 53 1011.8
20211127231051 38 102 7.0 12.0 0.00 0.00 0.00 53 1011.8
20211127230552 38 102 8.0 12.0 0.00 0.00 0.00 52 1011.9
20211127225932 39 102 7.0 14.0 0.00 0.00 0.00 52 1011.7
20211127225432 39 103 9.0 14.0 0.00 0.00 0.00 51 1011.8
20211127224932 39 99 8.0 13.0 0.00 0.00 0.00 51 1011.5
20211127224432 39 96 9.0 13.0 0.00 0.00 0.00 51 1011.5
20211127223932 39 98 6.0 11.0 0.00 0.00 0.00 51 1011.5
20211127223014 39 99 8.0 13.0 0.00 0.00 0.00 51 1011.3
20211127222514 39 99 8.0 13.0 0.00 0.00 0.00 51 1011.3
20211127221925 39 93 7.0 13.0 0.00 0.00 0.00 51 1011.2
20211127221425 40 94 6.0 13.0 0.00 0.00 0.00 51 1011.3
20211127220451 40 101 7.0 11.0 0.00 0.00 0.00 50 1011.4
20211127215951 41 98 7.0 9.0 0.00 0.00 0.00 50 1011.5
20211127215452 41 98 6.0 9.0 0.00 0.00 0.00 50 1011.5
20211127214951 41 102 5.0 8.0 0.00 0.00 0.00 50 1011.6
20211127214451 41 102 5.0 10.0 0.00 0.00 0.00 50 1011.6
20211127213954 42 111 3.0 11.0 0.00 0.00 0.00 49 1011.7
20211127213451 42 112 8.0 11.0 0.00 0.00 0.00 49 1011.7
20211127212950 42 112 7.0 11.0 0.00 0.00 0.00 49 1011.8
20211127212451 42 111 4.0 11.0 0.00 0.00 0.00 49 1011.7
20211127211951 42 111 6.0 11.0 0.00 0.00 0.00 49 1011.8
20211127211452 42 111 5.0 10.0 0.00 0.00 0.00 50 1012.0
20211127210704 42 120 4.0 8.0 0.00 0.00 0.00 50 1012.0
20211127210204 42 133 3.0 8.0 0.00 0.00 0.00 49 1011.9
20211127205704 42 108 1.0 7.0 0.00 0.00 0.00 48 1011.9
20211127205204 42 108 2.0 8.0 0.00 0.00 0.00 48 1011.9
20211127204704 42 107 4.0 8.0 0.00 0.00 0.00 49 1011.7
20211127204205 43 108 4.0 8.0 0.00 0.00 0.00 48 1011.6
20211127203704 43 114 2.0 8.0 0.00 0.00 0.00 48 1011.7
20211127203204 43 126 2.0 7.0 0.00 0.00 0.00 48 1011.6
20211127202704 42 122 3.0 8.0 0.00 0.00 0.00 48 1011.6
20211127202204 42 107 4.0 8.0 0.00 0.00 0.00 49 1011.7
20211127201704 42 131 3.0 8.0 0.00 0.00 0.00 49 1011.8
20211127201205 42 116 2.0 5.0 0.00 0.00 0.00 48 1011.8
20211127200704 42 121 1.0 7.0 0.00 0.00 0.00 48 1011.8
20211127200204 42 122 1.0 7.0 0.00 0.00 0.00 48 1011.9
20211127195607 42 120 2.0 5.0 0.00 0.00 0.00 48 1011.9
20211127195105 42 120 3.0 7.0 0.00 0.00 0.00 48 1011.9
20211127194604 42 124 3.0 7.0 0.00 0.00 0.00 48 1011.7
20211127194104 42 121 3.0 7.0 0.00 0.00 0.00 48 1011.8
20211127193604 42 121 4.0 7.0 0.00 0.00 0.00 47 1011.8
20211127193105 42 123 2.0 7.0 0.00 0.00 0.00 46 1011.9
20211127192604 43 111 2.0 4.0 0.00 0.00 0.00 47 1011.9
20211127192104 43 104 1.0 10.0 0.00 0.00 0.00 47 1011.9
20211127191604 43 105 3.0 10.0 0.00 0.00 0.00 47 1012.0
20211127191104 43 118 4.0 10.0 0.00 0.00 0.00 48 1012.0
20211127190606 43 130 5.0 11.0 0.00 0.00 0.00 47 1012.0
20211127190104 43 120 3.0 11.0 0.00 0.00 0.00 48 1012.0
20211127185604 42 120 2.0 13.0 0.00 0.00 0.00 49 1012.2
20211127185104 42 144 7.0 13.0 0.00 0.00 0.00 48 1012.3
20211127184605 42 136 3.0 10.0 0.00 0.00 0.00 49 1012.4
20211127184104 41 149 3.0 9.0 0.00 0.00 0.00 48 1012.4
20211127183604 41 158 2.0 8.0 0.00 0.00 0.00 49 1012.2
20211127183103 41 137 2.0 8.0 0.00 0.00 0.00 50 1012.1
20211127182604 41 138 3.0 6.0 0.00 0.00 0.00 49 1012.1
20211127182103 40 124 2.0 6.0 0.00 0.00 0.00 49 1012.3
20211127181217 40 126 2.0 8.0 0.00 0.00 0.00 51 1012.4
20211127180717 40 112 3.0 8.0 0.00 0.00 0.00 51 1012.4
20211127180217 40 119 3.0 8.0 0.00 0.00 0.00 50 1012.6
20211127175717 40 118 1.0 9.0 0.00 0.00 0.00 51 1012.7
20211127175217 40 123 6.0 9.0 0.00 0.00 0.00 50 1012.7
20211127174717 40 124 4.0 5.0 0.00 0.00 0.00 48 1012.8
20211127174217 40 131 1.0 4.0 0.00 0.00 0.00 49 1012.8
20211127173247 41 131 2.0 5.0 0.00 0.00 0.00 49 1013.1
20211127172747 40 150 1.0 6.0 0.00 0.00 0.00 51 1013.2
20211127172247 40 150 2.0 6.0 0.00 0.00 0.00 51 1013.3
20211127171747 39 154 1.0 6.0 0.00 0.00 0.00 50 1013.3
20211127171246 39 153 2.0 6.0 0.00 0.00 0.00 50 1013.4
20211127170746 38 142 3.0 6.0 0.00 0.00 0.00 50 1013.5
20211127170152 38 139 3.0 6.0 0.00 0.00 0.00 50 1013.7
20211127165652 38 138 1.0 6.0 0.00 0.00 0.00 50 1013.9
20211127165152 39 142 2.0 7.0 0.00 0.00 0.00 48 1013.8
20211127164653 39 133 3.0 7.0 0.00 0.00 0.00 49 1013.8
20211127164153 40 143 2.0 7.0 0.00 0.00 0.00 48 1013.8
20211127163653 41 135 3.0 9.0 0.00 0.00 0.00 47 1013.8
20211127163152 42 128 2.0 9.0 0.00 0.00 0.00 47 1013.9
20211127162652 43 130 2.0 8.0 0.00 0.00 0.00 46 1014.0
20211127162152 44 134 4.0 8.0 0.00 0.00 0.00 46 1013.9
20211127161652 44 147 2.0 7.0 0.00 0.00 0.00 46 1014.0
20211127161103 44 138 2.0 9.0 0.00 0.00 0.00 45 1014.2
20211127160607 43 152 2.0 12.0 0.00 0.00 0.00 43 1014.1
20211127160103 43 155 6.0 13.0 0.00 0.00 0.00 42 1013.9
20211127155607 42 157 5.0 13.0 0.00 0.00 0.00 43 1013.9
20211127155103 42 152 6.0 16.0 0.00 0.00 0.00 44 1013.9
20211127154604 41 154 6.0 16.0 0.00 0.00 0.00 44 1013.9
20211127154103 41 154 8.0 18.0 0.00 0.00 0.00 45 1013.8
20211127153606 40 156 10.0 19.0 0.00 0.00 0.00 45 1013.8
20211127153103 39 159 10.0 19.0 0.00 0.00 0.00 45 1013.9
20211127152606 39 154 12.0 18.0 0.00 0.00 0.00 46 1013.7
20211127152103 38 156 9.0 19.0 0.00 0.00 0.00 48 1013.8
20211127151606 38 159 11.0 19.0 0.00 0.00 0.00 47 1013.6
20211127151103 37 157 10.0 21.0 0.00 0.00 0.00 48 1013.5
20211127150606 37 158 15.0 21.0 0.00 0.00 0.00 48 1013.5
20211127150103 37 156 12.0 20.0 0.00 0.00 0.00 50 1013.4
20211127145605 37 157 10.0 17.0 0.00 0.00 0.00 51 1013.4
20211127145103 36 153 11.0 17.0 0.00 0.00 0.00 53 1013.3
20211127144608 36 157 11.0 19.0 0.00 0.00 0.00 55 1013.4
20211127144103 35 153 14.0 19.0 0.00 0.00 0.00 55 1013.4
20211127143604 34 155 10.0 21.0 0.00 0.00 0.00 55 1013.3
20211127143103 34 156 13.0 22.0 0.00 0.00 0.00 55 1013.2
20211127142604 34 158 17.0 23.0 0.00 0.00 0.00 56 1013.2
20211127142103 33 158 12.0 25.0 0.00 0.00 0.00 56 1013.2
20211127141607 33 156 14.0 26.0 0.00 0.00 0.00 58 1013.1
20211127141103 32 160 15.0 26.0 0.00 0.00 0.00 59 1013.2
20211127140606 31 156 15.0 26.0 0.00 0.00 0.00 60 1013.0
20211127140103 30 155 13.0 26.0 0.00 0.00 0.00 61 1013.0
20211127135604 29 155 16.0 25.0 0.00 0.00 0.00 63 1012.9
20211127135103 28 157 13.0 27.0 0.00 0.00 0.00 64 1013.0
20211127134604 27 153 15.0 27.0 0.00 0.00 0.00 64 1013.0
20211127134103 26 156 16.0 27.0 0.00 0.00 0.00 65 1012.8
20211127133603 26 162 19.0 29.0 0.00 0.00 0.00 65 1012.9
20211127133103 26 160 17.0 29.0 0.00 0.00 0.00 66 1012.7
20211127132603 25 159 16.0 28.0 0.00 0.00 0.00 67 1012.6
20211127132103 25 155 19.0 26.0 0.00 0.00 0.00 68 1012.6
20211127131604 25 162 19.0 28.0 0.00 0.00 0.00 68 1012.6
20211127131104 24 157 16.0 28.0 0.00 0.00 0.00 69 1012.4
20211127130603 24 156 21.0 30.0 0.00 0.00 0.00 69 1012.1
20211127130103 24 157 21.0 33.0 0.00 0.00 0.00 69 1012.1
20211127125603 24 161 20.0 33.0 0.00 0.00 0.00 69 1012.1
20211127125103 24 158 21.0 32.0 0.00 0.00 0.00 70 1012.2
20211127124603 24 153 24.0 32.0 0.00 0.00 0.00 70 1012.1
20211127123925 24 159 21.0 32.0 0.00 0.00 0.00 70 1011.7
20211127123425 0 159 19.0 29.0 0.00 0.00 0.00 1011.8
20211127122926 0 152 17.0 35.0 0.00 0.00 0.00 1011.7
20211127122425 0 158 20.0 37.0 0.00 0.00 0.00 1011.6
20211127121925 0 157 20.0 37.0 0.00 0.00 0.00 1011.6
20211127121425 0 158 20.0 34.0 0.00 0.00 0.00 1011.6
20211127120925 0 158 22.0 34.0 0.00 0.00 0.00 1011.7
20211127120426 0 161 19.0 31.0 0.00 0.00 0.00 1011.6
20211127115747 0 155 18.0 33.0 0.00 0.00 0.00 1011.4
20211127115246 0 156 18.0 33.0 0.00 0.00 0.00 1011.5
20211127114748 0 156 17.0 31.0 0.00 0.00 0.00 1011.6
20211127114246 0 158 20.0 37.0 0.00 0.00 0.00 1011.7
20211127113748 0 156 20.0 37.0 0.00 0.00 0.00 1011.7
20211127113247 0 155 17.0 31.0 0.00 0.00 0.00 1011.5
20211127112746 0 161 19.0 33.0 0.00 0.00 0.00 1011.4
20211127112247 0 160 21.0 33.0 0.00 0.00 0.00 1011.6
20211127111328 23 158 20.0 33.0 0.00 0.00 0.00 72 1011.6
20211127110828 23 160 20.0 33.0 0.00 0.00 0.00 72 1011.5
20211127105935 23 163 19.0 33.0 0.00 0.00 0.00 72 1011.6
20211127105435 23 158 18.0 33.0 0.00 0.00 0.00 72 1011.6
20211127104935 23 153 15.0 25.0 0.00 0.00 0.00 72 1011.7
20211127104435 23 154 13.0 24.0 0.00 0.00 0.00 72 1011.5
20211127103439 23 150 9.0 25.0 0.00 0.00 0.00 72 1011.5
20211127102939 23 155 13.0 25.0 0.00 0.00 0.00 72 1011.5
20211127102441 23 158 16.0 26.0 0.00 0.00 0.00 72 1011.5
20211127101939 23 154 12.0 26.0 0.00 0.00 0.00 72 1011.6
20211127101044 23 153 9.0 26.0 0.00 0.00 0.00 72 1011.2
20211127100544 23 161 13.0 26.0 0.00 0.00 0.00 72 1011.2
20211127100044 23 156 13.0 26.0 0.00 0.00 0.00 72 1011.2
20211127095544 23 156 15.0 26.0 0.00 0.00 0.00 72 1011.0
20211127095045 23 159 12.0 25.0 0.00 0.00 0.00 72 1010.8
20211127094544 23 151 17.0 28.0 0.00 0.00 0.00 72 1010.8
20211127094044 23 153 16.0 28.0 0.00 0.00 0.00 72 1010.6
20211127093348 23 157 13.0 30.0 0.00 0.00 0.00 72 1010.6
20211127092848 23 157 16.0 30.0 0.00 0.00 0.00 72 1010.8
20211127092348 23 154 12.0 30.0 0.00 0.00 0.00 72 1011.0
20211127091848 23 157 12.0 24.0 0.00 0.00 0.00 72 1011.1
20211127091348 23 156 13.0 23.0 0.00 0.00 0.00 72 1011.0
20211127090848 23 154 10.0 19.0 0.00 0.00 0.00 71 1011.1
20211127090348 23 156 11.0 19.0 0.00 0.00 0.00 71 1011.2
20211127085848 23 155 12.0 18.0 0.00 0.00 0.00 71 1011.3